Tracking 31027 objects as of 19-Jul-2025
HD Live streaming from Space Station
objects crossing your sky now

SL-12 R/B(2)

Track SL-12 R/B(2) now!


NORAD ID: 14115
Int'l Code: 1982-093F
Perigee: 35,493.7 km
Apogee: 35,549.1 km
Inclination: 7.2 °
Period: 1,422.2 minutes
Semi major axis: 41892 km
RCS: 2.5512 m2 (large)
Launch date: September 16, 1982
Source: Commonwealth of Independent States (former USSR) (CIS)
Launch site: TYURATAM MISSILE AND SPACE COMPLEX (TTMTR)

Note: This is a ROCKET BODY
Your satellite tracking list
IRIDIUM 106
Track 1 satellite(s)




NASA's NSSDC Master Catalog

Two Line Element Set (TLE):
1 14115U 82093F   25199.28821073 -.00000069  00000-0  00000-0 0  9997
2 14115   7.2086 299.3704 0006616 296.6644 131.9273  1.01251169120473
Source of the keplerian elements: AFSPC